Time,TemperatureF,DewpointF,PressureIn,WindDirection,WindDirectionDegrees,WindSpeedMPH,WindSpeedGustMPH,Humidity,HourlyPrecipIn,Conditions,Clouds,dailyrainin,SoftwareType,DateUTC
2013-07-12 00:12:00,59.6,48.0,29.60,East,87,0.0,1.0,65,0.00,,,0.00,weatherlink.com 1.10,2013-07-12 06:12:00,
2013-07-12 00:27:00,58.4,47.0,29.61,East,87,0.0,3.0,67,0.00,,,0.00,weatherlink.com 1.10,2013-07-12 06:27:00,
2013-07-12 00:42:00,57.3,47.0,29.61,East,87,0.0,1.0,69,0.00,,,0.00,weatherlink.com 1.10,2013-07-12 06:42:00,
2013-07-12 00:57:00,56.7,47.0,29.61,East,87,0.0,0.0,71,0.00,,,0.00,weatherlink.com 1.10,2013-07-12 06:57:00,
2013-07-12 01:12:00,55.8,48.0,29.62,NE,41,1.0,3.0,76,0.00,,,0.00,weatherlink.com 1.10,2013-07-12 07:12:00,
2013-07-12 01:42:00,56.1,48.0,29.62,NE,42,0.0,2.0,75,0.00,,,0.00,weatherlink.com 1.10,2013-07-12 07:42:00,
2013-07-12 01:57:00,55.2,48.0,29.63,NE,42,0.0,0.0,77,0.00,,,0.00,weatherlink.com 1.10,2013-07-12 07:57:00,
2013-07-12 02:12:00,54.2,47.0,29.63,NE,42,0.0,2.0,78,0.00,,,0.00,weatherlink.com 1.10,2013-07-12 08:12:00,
2013-07-12 02:28:00,53.5,48.0,29.63,NE,42,0.0,0.0,81,0.00,,,0.00,weatherlink.com 1.10,2013-07-12 08:28:00,
2013-07-12 02:43:00,53.0,48.0,29.63,NE,42,0.0,0.0,82,0.00,,,0.00,weatherlink.com 1.10,2013-07-12 08:43:00,
2013-07-12 02:58:00,52.7,48.0,29.63,NE,46,0.0,3.0,85,0.00,,,0.00,weatherlink.com 1.10,2013-07-12 08:58:00,
2013-07-12 03:13:00,52.1,48.0,29.63,NE,46,0.0,0.0,85,0.00,,,0.00,weatherlink.com 1.10,2013-07-12 09:13:00,
2013-07-12 03:28:00,51.4,48.0,29.64,NE,46,0.0,1.0,87,0.00,,,0.00,weatherlink.com 1.10,2013-07-12 09:28:00,
2013-07-12 03:43:00,51.8,48.0,29.64,NE,46,1.0,2.0,86,0.00,,,0.00,weatherlink.com 1.10,2013-07-12 09:43:00,
2013-07-12 03:58:00,52.0,48.0,29.64,NE,46,0.0,0.0,85,0.00,,,0.00,weatherlink.com 1.10,2013-07-12 09:58:00,
2013-07-12 04:13:00,51.0,47.0,29.65,NE,46,0.0,0.0,87,0.00,,,0.00,weatherlink.com 1.10,2013-07-12 10:13:00,
2013-07-12 04:28:00,50.3,47.0,29.65,NE,46,0.0,1.0,88,0.00,,,0.00,weatherlink.com 1.10,2013-07-12 10:28:00,
2013-07-12 04:43:00,49.6,47.0,29.65,NE,46,0.0,0.0,89,0.00,,,0.00,weatherlink.com 1.10,2013-07-12 10:43:00,
2013-07-12 04:58:00,49.6,47.0,29.65,NE,46,0.0,0.0,90,0.00,,,0.00,weatherlink.com 1.10,2013-07-12 10:58:00,
2013-07-12 05:13:00,49.0,47.0,29.66,NE,46,3.0,3.0,91,0.00,,,0.00,weatherlink.com 1.10,2013-07-12 11:13:00,
2013-07-12 05:28:00,49.3,47.0,29.66,North,11,0.0,2.0,90,0.00,,,0.00,weatherlink.com 1.10,2013-07-12 11:28:00,
2013-07-12 05:43:00,49.3,46.0,29.66,North,11,0.0,0.0,89,0.00,,,0.00,weatherlink.com 1.10,2013-07-12 11:43:00,
2013-07-12 05:58:00,49.2,47.0,29.66,North,11,0.0,2.0,90,0.00,,,0.00,weatherlink.com 1.10,2013-07-12 11:58:00,
2013-07-12 06:13:00,48.9,47.0,29.66,North,11,0.0,0.0,92,0.00,,,0.00,weatherlink.com 1.10,2013-07-12 12:13:00,
2013-07-12 06:28:00,48.5,46.0,29.67,North,11,0.0,0.0,91,0.00,,,0.00,weatherlink.com 1.10,2013-07-12 12:28:00,
2013-07-12 06:43:00,49.1,47.0,29.68,North,11,0.0,0.0,92,0.00,,,0.00,weatherlink.com 1.10,2013-07-12 12:43:00,
2013-07-12 06:58:00,49.7,47.0,29.68,North,11,0.0,0.0,91,0.00,,,0.00,weatherlink.com 1.10,2013-07-12 12:58:00,
2013-07-12 07:13:00,50.7,48.0,29.68,North,11,0.0,0.0,90,0.00,,,0.00,weatherlink.com 1.10,2013-07-12 13:13:00,
2013-07-12 07:28:00,51.9,49.0,29.68,North,11,0.0,0.0,89,0.00,,,0.00,weatherlink.com 1.10,2013-07-12 13:28:00,
2013-07-12 07:43:00,53.4,49.0,29.68,North,11,0.0,0.0,85,0.00,,,0.00,weatherlink.com 1.10,2013-07-12 13:43:00,
2013-07-12 07:58:00,54.4,49.0,29.68,North,11,0.0,0.0,82,0.00,,,0.00,weatherlink.com 1.10,2013-07-12 13:58:00,
2013-07-12 08:13:00,55.6,49.0,29.68,North,11,0.0,1.0,79,0.00,,,0.00,weatherlink.com 1.10,2013-07-12 14:13:00,
2013-07-12 08:28:00,56.7,49.0,29.68,North,11,0.0,1.0,74,0.00,,,0.00,weatherlink.com 1.10,2013-07-12 14:28:00,
2013-07-12 08:43:00,58.7,49.0,29.68,North,355,0.0,2.0,70,0.00,,,0.00,weatherlink.com 1.10,2013-07-12 14:43:00,
2013-07-12 08:58:00,59.1,48.0,29.67,NNW,331,0.0,4.0,67,0.00,,,0.00,weatherlink.com 1.10,2013-07-12 14:58:00,
2013-07-12 09:13:00,61.1,49.0,29.67,NNW,329,0.0,4.0,65,0.00,,,0.00,weatherlink.com 1.10,2013-07-12 15:13:00,
2013-07-12 09:29:00,62.6,50.0,29.67,NW,322,2.0,4.0,63,0.00,,,0.00,weatherlink.com 1.10,2013-07-12 15:29:00,
2013-07-12 09:44:00,64.4,50.0,29.66,NW,323,2.0,3.0,59,0.00,,,0.00,weatherlink.com 1.10,2013-07-12 15:44:00,
2013-07-12 09:59:00,65.6,50.0,29.66,North,355,0.0,3.0,58,0.00,,,0.00,weatherlink.com 1.10,2013-07-12 15:59:00,
2013-07-12 10:14:00,66.6,49.0,29.66,NNW,344,3.0,5.0,54,0.00,,,0.00,weatherlink.com 1.10,2013-07-12 16:14:00,
2013-07-12 10:29:00,68.0,49.0,29.65,NW,309,0.0,5.0,51,0.00,,,0.00,weatherlink.com 1.10,2013-07-12 16:29:00,
2013-07-12 10:44:00,68.8,50.0,29.64,WNW,302,4.0,6.0,51,0.00,,,0.00,weatherlink.com 1.10,2013-07-12 16:44:00,
2013-07-12 11:14:00,71.4,49.0,29.64,NW,317,1.0,6.0,45,0.00,,,0.00,weatherlink.com 1.10,2013-07-12 17:14:00,
2013-07-12 11:29:00,72.6,48.0,29.63,NNW,345,3.0,5.0,42,0.00,,,0.00,weatherlink.com 1.10,2013-07-12 17:29:00,
2013-07-12 11:44:00,73.9,47.0,29.63,WNW,294,6.0,9.0,38,0.00,,,0.00,weatherlink.com 1.10,2013-07-12 17:44:00,
2013-07-12 12:14:00,75.5,46.0,29.62,NW,326,2.0,7.0,35,0.00,,,0.00,weatherlink.com 1.10,2013-07-12 18:14:00,
2013-07-12 12:29:00,76.4,44.0,29.61,NE,36,0.0,7.0,31,0.00,,,0.00,weatherlink.com 1.10,2013-07-12 18:29:00,
2013-07-12 12:59:00,78.8,46.0,29.61,West,281,0.0,5.0,31,0.00,,,0.00,weatherlink.com 1.10,2013-07-12 18:59:00,
2013-07-12 13:14:00,79.3,45.0,29.60,NW,304,4.0,8.0,30,0.00,,,0.00,weatherlink.com 1.10,2013-07-12 19:14:00,
2013-07-12 13:29:00,79.4,45.0,29.59,WSW,241,0.0,6.0,30,0.00,,,0.00,weatherlink.com 1.10,2013-07-12 19:29:00,
2013-07-12 13:44:00,79.2,48.0,29.58,SSW,202,2.0,4.0,33,0.00,,,0.00,weatherlink.com 1.10,2013-07-12 19:44:00,
2013-07-12 13:59:00,80.2,45.0,29.58,SSW,202,0.0,3.0,29,0.00,,,0.00,weatherlink.com 1.10,2013-07-12 19:59:00,
2013-07-12 14:15:00,82.5,45.0,29.57,NNW,331,4.0,6.0,27,0.00,,,0.00,weatherlink.com 1.10,2013-07-12 20:15:00,
2013-07-12 14:30:00,82.2,48.0,29.57,NW,304,5.0,12.0,30,0.00,,,0.00,weatherlink.com 1.10,2013-07-12 20:30:00,
2013-07-12 14:45:00,81.6,48.0,29.57,NW,316,6.0,11.0,31,0.00,,,0.00,weatherlink.com 1.10,2013-07-12 20:45:00,
2013-07-12 15:00:00,81.4,46.0,29.56,NNW,340,4.0,8.0,29,0.00,,,0.00,weatherlink.com 1.10,2013-07-12 21:00:00,
2013-07-12 15:15:00,80.4,49.0,29.56,NW,310,0.0,13.0,33,0.00,,,0.00,weatherlink.com 1.10,2013-07-12 21:15:00,
2013-07-12 15:30:00,80.7,46.0,29.57,SW,230,4.0,4.0,29,0.00,,,0.00,weatherlink.com 1.10,2013-07-12 21:30:00,
2013-07-12 15:45:00,80.0,54.0,29.57,SW,231,0.0,3.0,40,0.00,,,0.00,weatherlink.com 1.10,2013-07-12 21:45:00,
2013-07-12 16:15:00,75.4,55.0,29.56,SSW,195,0.0,4.0,50,0.01,,,0.01,weatherlink.com 1.10,2013-07-12 22:15:00,
2013-07-12 16:30:00,77.0,55.0,29.56,SSW,208,1.0,8.0,47,0.01,,,0.01,weatherlink.com 1.10,2013-07-12 22:30:00,
2013-07-12 16:45:00,78.2,57.0,29.57,NW,319,9.0,10.0,48,0.01,,,0.01,weatherlink.com 1.10,2013-07-12 22:45:00,
2013-07-12 17:00:00,80.6,47.0,29.55,West,269,4.0,6.0,31,0.00,,,0.01,weatherlink.com 1.10,2013-07-12 23:00:00,
2013-07-12 17:15:00,80.2,43.0,29.55,East,96,1.0,6.0,27,0.00,,,0.01,weatherlink.com 1.10,2013-07-12 23:15:00,
2013-07-12 17:45:00,69.0,58.0,29.59,ESE,112,4.0,12.0,67,0.05,,,0.06,weatherlink.com 1.10,2013-07-12 23:45:00,
2013-07-12 18:30:00,78.7,50.0,29.57,NE,43,5.0,7.0,36,0.03,,,0.06,weatherlink.com 1.10,2013-07-13 00:30:00,
2013-07-12 18:45:00,79.7,49.0,29.57,North,350,0.0,10.0,34,0.00,,,0.06,weatherlink.com 1.10,2013-07-13 00:45:00,
2013-07-12 19:00:00,78.8,51.0,29.57,NNW,338,3.0,10.0,38,0.00,,,0.06,weatherlink.com 1.10,2013-07-13 01:00:00,
2013-07-12 19:15:00,78.3,54.0,29.57,WNW,301,0.0,6.0,43,0.00,,,0.06,weatherlink.com 1.10,2013-07-13 01:15:00,
2013-07-12 19:30:00,77.3,57.0,29.57,WNW,301,0.0,4.0,50,0.00,,,0.06,weatherlink.com 1.10,2013-07-13 01:30:00,
2013-07-12 19:45:00,75.7,60.0,29.57,WNW,301,2.0,2.0,58,0.00,,,0.06,weatherlink.com 1.10,2013-07-13 01:45:00,
2013-07-12 20:00:00,75.6,54.0,29.58,NW,313,2.0,7.0,48,0.00,,,0.06,weatherlink.com 1.10,2013-07-13 02:00:00,
2013-07-12 20:15:00,76.4,53.0,29.58,WNW,294,2.0,3.0,45,0.00,,,0.06,weatherlink.com 1.10,2013-07-13 02:15:00,
2013-07-12 20:45:00,72.5,55.0,29.59,NW,317,3.0,6.0,54,0.00,,,0.06,weatherlink.com 1.10,2013-07-13 02:45:00,
2013-07-12 21:00:00,71.8,53.0,29.59,NNW,333,4.0,7.0,52,0.00,,,0.06,weatherlink.com 1.10,2013-07-13 03:00:00,
2013-07-12 21:15:00,70.9,54.0,29.60,NNW,327,3.0,4.0,56,0.00,,,0.06,weatherlink.com 1.10,2013-07-13 03:15:00,
2013-07-12 21:30:00,70.1,55.0,29.60,North,355,6.0,9.0,59,0.00,,,0.06,weatherlink.com 1.10,2013-07-13 03:30:00,
2013-07-12 21:45:00,69.0,53.0,29.61,North,5,9.0,10.0,57,0.00,,,0.06,weatherlink.com 1.10,2013-07-13 03:45:00,
2013-07-12 22:00:00,70.9,50.0,29.62,North,355,8.0,10.0,47,0.00,,,0.06,weatherlink.com 1.10,2013-07-13 04:00:00,
2013-07-12 22:15:00,72.3,47.0,29.63,NNW,348,7.0,11.0,41,0.00,,,0.06,weatherlink.com 1.10,2013-07-13 04:15:00,
2013-07-12 22:30:00,71.8,47.0,29.63,NE,34,6.0,12.0,41,0.00,,,0.06,weatherlink.com 1.10,2013-07-13 04:30:00,
2013-07-12 22:45:00,71.5,46.0,29.64,NNW,330,7.0,14.0,40,0.00,,,0.06,weatherlink.com 1.10,2013-07-13 04:45:00,
2013-07-12 23:00:00,71.1,43.0,29.64,WNW,302,2.0,12.0,37,0.00,,,0.06,weatherlink.com 1.10,2013-07-13 05:00:00,
2013-07-12 23:15:00,70.6,44.0,29.64,NNE,17,8.0,10.0,39,0.00,,,0.06,weatherlink.com 1.10,2013-07-13 05:15:00,
2013-07-12 23:30:00,71.1,43.0,29.65,NNW,344,12.0,16.0,37,0.00,,,0.06,weatherlink.com 1.10,2013-07-13 05:30:00,
2013-07-12 23:45:00,69.8,47.0,29.66,NW,325,4.0,11.0,44,0.00,,,0.06,weatherlink.com 1.10,2013-07-13 05:45:00,